2023/02/05 00:00:00,50.8,-0.4
2023/02/05 00:10:00,50.8,-0.5
2023/02/05 00:20:00,50.7,-0.6
2023/02/05 00:30:00,50.7,-0.6
2023/02/05 00:40:00,50.7,-1.1
2023/02/05 00:50:00,50.7,-1.0
2023/02/05 01:00:00,50.7,-0.8
2023/02/05 01:10:00,50.6,-1.0
2023/02/05 01:20:00,50.6,-1.2
2023/02/05 01:30:00,50.6,-1.8
2023/02/05 01:40:00,50.6,-2.1
2023/02/05 01:50:00,50.6,-1.9
2023/02/05 02:00:00,50.6,-1.7
2023/02/05 02:10:00,50.6,-1.6
2023/02/05 02:20:00,50.6,-2.0
2023/02/05 02:30:00,50.5,-2.0
2023/02/05 02:40:00,50.5,-1.6
2023/02/05 02:50:00,50.5,-1.7
2023/02/05 03:00:00,50.5,-2.3
2023/02/05 03:10:00,50.5,-2.4
2023/02/05 03:20:00,50.4,-2.8
2023/02/05 03:30:00,50.5,-2.8
2023/02/05 03:40:00,50.4,-2.9
2023/02/05 03:50:00,50.4,-2.6
2023/02/05 04:00:00,50.3,-2.8
2023/02/05 04:10:00,50.3,-2.9
2023/02/05 04:20:00,50.3,-3.1
2023/02/05 04:30:00,50.3,-3.2
2023/02/05 04:40:00,50.3,-3.2
2023/02/05 04:50:00,50.3,-3.3
2023/02/05 05:00:00,50.3,-3.0
2023/02/05 05:10:00,50.2,-2.9
2023/02/05 05:20:00,50.2,-3.1
2023/02/05 05:30:00,50.2,-3.1
2023/02/05 05:40:00,50.1,-3.1
2023/02/05 05:50:00,50.1,-3.4
2023/02/05 06:00:00,50.1,-3.5
2023/02/05 06:10:00,50.1,-3.5
2023/02/05 06:20:00,50.1,-3.6
2023/02/05 06:30:00,50.1,-4.0
2023/02/05 06:40:00,50.1,-4.1
2023/02/05 06:50:00,50.1,-4.0
2023/02/05 07:00:00,50.1,-4.3
2023/02/05 07:10:00,50.0,-4.4
2023/02/05 07:20:00,50.0,-4.4
2023/02/05 07:30:00,50.0,-4.4
2023/02/05 07:40:00,50.0,-4.5
2023/02/05 07:50:00,50.0,-3.8
2023/02/05 08:00:00,50.0,-3.9
2023/02/05 08:10:00,50.0,-4.4
2023/02/05 08:20:00,50.0,-4.2
2023/02/05 08:30:00,50.0,-3.9
2023/02/05 08:40:00,49.9,-4.0
2023/02/05 08:50:00,50.0,-4.3
2023/02/05 09:00:00,49.9,-4.1
2023/02/05 09:10:00,49.9,-3.9
2023/02/05 09:20:00,49.9,-3.7
2023/02/05 09:30:00,49.9,-3.4
2023/02/05 09:40:00,49.9,-3.0
2023/02/05 09:50:00,49.8,-1.9
2023/02/05 10:00:00,49.8,-2.0
2023/02/05 10:10:00,49.8,-1.2
2023/02/05 10:20:00,49.9, 0.0
2023/02/05 10:30:00,49.8, 0.7
2023/02/05 10:40:00,49.8, 1.1
2023/02/05 10:50:00,49.8, 1.7
2023/02/05 11:00:00,49.7, 2.3
2023/02/05 11:10:00,49.9, 3.0
2023/02/05 11:20:00,50.2, 3.7
2023/02/05 11:30:00,50.3, 4.3
2023/02/05 11:40:00,50.3, 4.9
2023/02/05 11:50:00,50.1, 5.2
2023/02/05 12:00:00,50.1, 5.7
2023/02/05 12:10:00,50.1, 5.4
2023/02/05 12:20:00,50.1, 6.0
2023/02/05 12:30:00,50.4, 6.0
2023/02/05 12:40:00,50.3, 6.0
2023/02/05 12:50:00,50.1, 6.3
2023/02/05 13:00:00,49.8, 6.5
2023/02/05 13:10:00,49.7, 6.8
2023/02/05 13:20:00,49.7, 6.1
2023/02/05 13:30:00,50.0, 6.8
2023/02/05 13:40:00,49.9, 7.0
2023/02/05 13:50:00,49.7, 6.9
2023/02/05 14:00:00,49.5, 7.1
2023/02/05 14:10:00,49.2, 7.3
2023/02/05 14:20:00,48.9, 7.4
2023/02/05 14:30:00,48.6, 7.6
2023/02/05 14:40:00,48.3, 7.1
2023/02/05 14:50:00,47.8, 7.0
2023/02/05 15:00:00,47.2, 6.5
2023/02/05 15:10:00,46.8, 6.0
2023/02/05 15:20:00,46.5, 4.2
2023/02/05 15:30:00,46.1, 3.2
2023/02/05 15:40:00,46.0, 2.4
2023/02/05 15:50:00,45.9, 2.4
2023/02/05 16:00:00,45.9, 1.9
2023/02/05 16:10:00,45.9, 1.8
2023/02/05 16:20:00,45.9, 1.9
2023/02/05 16:30:00,45.8, 1.4
2023/02/05 16:40:00,45.9, 1.4
2023/02/05 16:50:00,45.7, 1.4
2023/02/05 17:00:00,45.5, 1.0
2023/02/05 17:10:00,45.5, 0.8
2023/02/05 17:20:00,45.3, 0.8
2023/02/05 17:30:00,45.4, 0.4
2023/02/05 17:40:00,45.7, 0.0
2023/02/05 17:50:00,45.8,-0.2
2023/02/05 18:00:00,45.9, 0.0
2023/02/05 18:10:00,46.1,-0.4
2023/02/05 18:20:00,46.1,-0.6
2023/02/05 18:30:00,46.2,-0.8
2023/02/05 18:40:00,46.3,-1.0
2023/02/05 18:50:00,46.3,-1.1
2023/02/05 19:00:00,46.3,-1.2
2023/02/05 19:10:00,46.3,-1.0
2023/02/05 19:20:00,46.4,-0.9
2023/02/05 19:30:00,46.5,-1.3
2023/02/05 19:40:00,46.8,-1.2
2023/02/05 19:50:00,46.5,-1.4
2023/02/05 20:00:00,46.4,-1.3
2023/02/05 20:10:00,46.4,-1.6
2023/02/05 20:20:00,46.5,-1.7
2023/02/05 20:30:00,46.6,-1.7
2023/02/05 20:40:00,46.5,-1.8
2023/02/05 20:50:00,46.4,-2.1
2023/02/05 21:00:00,46.4,-2.0
2023/02/05 21:10:00,46.3,-2.0
2023/02/05 21:20:00,46.3,-2.3
2023/02/05 21:30:00,46.3,-2.0
2023/02/05 21:40:00,46.3,-2.5
2023/02/05 21:50:00,46.3,-2.7
2023/02/05 22:00:00,46.3,-2.4
2023/02/05 22:10:00,46.2,-2.5
2023/02/05 22:20:00,46.2,-2.4
2023/02/05 22:30:00,46.1,-2.4
2023/02/05 22:40:00,46.0,-2.5
2023/02/05 22:50:00,46.0,-2.4
2023/02/05 23:00:00,46.0,-2.8
2023/02/05 23:10:00,45.9,-2.8
2023/02/05 23:20:00,45.9,-2.8
2023/02/05 23:30:00,45.8,-3.2
2023/02/05 23:40:00,45.8,-2.8
2023/02/05 23:50:00,45.7,-3.0
